sat.trackr.live / text

‹ back to catalog

STARLINK-37087

NORAD 68250 · 2026-054U

PAYLOAD ACTIVE UNKNOWN

§ Identity

Operator
Country
US
Launch date
2026-03-17
Launch site
AFETR
Launch vehicle
Mass (kg)
RCS (m²)

Purposes: comms

External: N2YO · Heavens-Above · Gunter

§ Orbital elements

Epoch: 2026-05-24T20:10:54.588576Z

Period
93.38 min
Inclination
53.1590°
Eccentricity
0.0000923
Mean motion
15.42166578 rev/d
Perigee alt
439.1 km
Apogee alt
440.3 km
Semi-major
6,817.9 km
B*
8.9892e-4
RAAN
300.8629°
Arg perigee
94.7875°
Mean anomaly
265.3236°
Rev number
1,068

§ Raw data

STARLINK-370871 68250U 26054U   26144.84090959  .00038913  00000+0  89892-3 0  99912 68250  53.1590 300.8629 0000923  94.7875 265.3236 15.42166578 10685

JSON: /api/v1/satellites/68250 · /tle

For live sub-satellite position, see the globe view (requires WebGL).

§ Visibility from observer

Set your observer location to see the next 7 days of passes ≥ 10°. The values pass through the URL so the page stays shareable.

No JS? Fill the form by hand. The geolocation button needs JavaScript.